CZ-6A DEB

Satellite information

Favourite Embed

Satellite Type and Status

DEBRISIN ORBIT

Key statistics

Satellite CZ-6A DEB at a glance.

Uptime

1129

Days in orbit

Revolutions

≈ 14.3

Per day

Orbit

SSO

Sun Synchronous Orbit

Inclination

98.8

Latest

Satellite identification and parameters

Extended collection of information and parameters for CZ-6A DEB.

Object identification

Identified? True

Debris? True

Object name: CZ-6A DEB

International designator: 2022-151AP

Object number (NORAD): 54296

Object ID (CCSDS): 54296

Country: PEOPLES REPUBLIC OF CHINA (PRC)

Current information (Y/N): Y

RCS size: SMALL

Orbital parameters

Period: 100.538 minutes

Inclination: 98.7956 deg

SMA: 7162.214 km

Apoapsis: 805.255 km

Periapsis: 762.904 km

RAAN: 19.5233 deg

Eccentricy: 0.00295652

Argument of periapsis: 226.0791 deg

Mean anomaly: 133.7952 deg

Mean motion: 14.32292705 rev/day

Mean motion (dot): 0.00002198 rev/day2

B* drag term: 0.0008272247 1/REarth

Two-line elements (TLE)

Creation date: Dec. 9, 2025, 1:02 p.m.

Reference frame: TEME

Reference center: EARTH

Epoch: Dec. 9, 2025, 1:57 a.m. UTC

TLE line 0: 0 CZ-6A DEB

TLE line 1: 1 54296U 22151AP 25343.08154283 .00002198 00000-0 82722-3 0 9999

TLE line 2: 2 54296 98.7956 19.5233 0029565 226.0791 133.7952 14.32292705159818

Live tracking on map

Real-time ground track for satellite CZ-6A DEB.

In-orbit conjunctions

A list of the most updated potential collisions computed for object CZ-6A DEB.

Target Orbit TCA Probability of collision Miss distance Type
COSMOS 2251 DEB LEO 2025-10-08 02:57:17 0.0001387582 333.0 (m) DEBRIS
IRIDIUM 28 LEO 2025-10-04 16:52:36 0.001058463 47.0 (m) PAYLOAD
COSMOS 1190 LEO 2025-02-07 12:15:25 0.001587727 99.0 (m) PAYLOAD

Associated space launch

Chinese satellite reported for atmospheric/ocean/environmental/spatial parameter research purposes, details TBD.

CZ-6A DEB was lifted into orbit during the mission ‘Long March 6A | Yunhai 3’, on board a Long March 6A space rocket.

The launch took place on Nov. 11, 2022, 10:52 p.m. from Launch Complex 9A.

For more information about the launch, click the button.

Launch to space Long March 6A | Yunhai 3
Long March 6A | Yunhai 3

Agency: N/A

Status: Launch Successful

Launch date: Nov. 11, 2022, 10:52 p.m. UTC

Rocket: Long March 6A

Launch pad: Launch Complex 9A

Location: Taiyuan Satellite Launch Center, People's Republic of China

...

Latest news about this satellite

There are no fresh news available about this satellite. Check back as we update our databases every day.


Newsletter sign-up

Weekly statistics, charts and insights to help you stay on top of the space industry.